Content
SEND FEEDBACK

Daily
Averages
Monthly
Summary
United States of America

SWANNANOA - BEETREE RESERVOIR, NORTH CAROLINA


Home > North America > United States > North Carolina
Elevation: 254 feet     Latitude: 35 38N     Longitude: 082 24W

WEATHER
 
SELECT A DAY
Number of Records: 231,105;   Date Range: 1/1/95 - 12/18/14
 
SHARE

PRINT THIS DATA

[ ← Previous Day ]
WEATHER ALMANAC - FEBRUARY 17, 2013
[ Next Day → ]
[ °C ]   °F
Weather ElementAverageHighLow
Temperature27.5 °F37 °F (3:54 pm)21 °F (3:54 am)
Dewpoint5.6 °F12 °F (10:54 pm)3.9 °F (1:54 am)
Humidity40.6 %58 % (10:54 pm)25 % (3:54 pm)
Barometer30.13 in30.25 in (10:54 pm)30.02 in (1:54 am)
Wind Speed14.7 mph25.3 mph (3:54 am)
Wind Gust39.1 mph (11:54 am)
Weather ElementAverage
Visibility10 mi
Wind DirectionW (272.2 °)

Weather ElementTotal
Precipitation---
Heating Degree Days36 (Base 65)
Averaged from 23 records on February 17, 2013
WEATHER CONDITIONS BREAKOUT
WIND DIRECTION BREAKOUT
WEATHER BY HOUR - FEBRUARY 17, 2013
[ °C ]   °F
Local TimeTemperatureDewpointHumidityBarometerVisibilityWind DirectionWind SpeedGust SpeedPrecipitationEventsConditions
1:54 AM21.9 °F3.9 °F46 %30.02 in10.0 miNNW (340°)17.3 mph26.5 mphClear
2:54 AM21.9 °F5.0 °F48 %30.03 in10.0 miNW (320°)15.0 mph27.6 mphOvercast
3:54 AM21.0 °F5.0 °F50 %30.02 in10.0 miNW (320°)25.3 mph34.5 mphMostly Cloudy
4:54 AM21.0 °F3.9 °F48 %30.04 in10.0 miNNW (330°)25.3 mph31.1 mphScattered Clouds
5:54 AM21.0 °F3.9 °F48 %30.06 in10.0 miNNW (330°)21.9 mph27.6 mphClear
6:54 AM21.0 °F5.0 °F50 %30.08 in10.0 miNNW (330°)19.6 mph32.2 mphScattered Clouds
7:54 AM21.9 °F6.1 °F51 %30.10 in10.0 miNW (320°)15.0 mph33.4 mphScattered Clouds
8:54 AM25.0 °F7.0 °F46 %30.13 in10.0 miNNW (330°)17.3 mph28.8 mphMostly Cloudy
9:54 AM27.0 °F6.1 °F41 %30.13 in10.0 miNNW (340°)25.3 mph38.0 mphClear
10:54 AM28.9 °F6.1 °F38 %30.15 in10.0 miNNW (340°)23.0 mph34.5 mphClear
11:54 AM30.9 °F5.0 °F33 %30.15 in10.0 miNorth (350°)18.4 mph39.1 mphClear
12:54 PM33.1 °F3.9 °F29 %30.13 in10.0 miNNW (340°)25.3 mph33.4 mphClear
1:54 PM35.1 °F3.9 °F27 %30.12 in10.0 miNNW (340°)19.6 mph28.8 mphClear
2:54 PM36.0 °F5.0 °F27 %30.12 in10.0 miNW (310°)13.8 mph26.5 mphClear
3:54 PM37.0 °F3.9 °F25 %30.14 in10.0 miNW (320°)19.6 mph27.6 mphClear
4:54 PM35.1 °F3.9 °F27 %30.15 in10.0 miNW (320°)13.8 mph23.0 mphClear
5:54 PM33.1 °F3.9 °F29 %30.18 in10.0 miNNW (340°)8.1 mphClear
6:54 PM30.2 °F5.0 °F34 %30.15 in10.0 miNW (320°)8.1 mphClear
7:54 PM28.9 °F6.1 °F38 %30.22 in10.0 miNW (320°)5.8 mphClear
8:54 PM28.0 °F7.0 °F41 %30.23 in10.0 miCalmClear
9:54 PM26.1 °F8.1 °F47 %30.24 in10.0 miCalmClear
10:54 PM25.0 °F12.0 °F58 %30.25 in10.0 miCalmClear
11:54 PM24.1 °F9.0 °F53 %30.25 in10.0 miCalmClear
Hourly data recorded from KAVL, located miles away from Swannanoa - Beetree Reservoir, North Carolina







STORIES FROM OUR PARTNERS